DAL4766 KMEM-KSDF

Flight info

Callsign DAL4766
Flight time 0h 55m
Altitude 33000
Route SELPH7 OHULO BUMPY MBELL5
Aircraft B739/M-SDE2E3FGHIRWXY/LB1

Departure

Time 2026-05-05 00:17
Airport Memphis International Airport (KMEM)

Arrival

Time 2026-05-05 01:13
Airport Louisville Muhammad Ali International Airport (KSDF)
Time Latitude Longitude Altitude Speed Heading
2026-05-04 23:41 35.04063 -89.98048 330 ft 0 kts 51°
2026-05-05 00:04 35.04050 -89.98072 325 ft 4 kts 67°
2026-05-05 00:04 35.04044 -89.98102 325 ft 4 kts 98°
2026-05-05 00:04 35.04052 -89.98127 326 ft 2 kts 135°
2026-05-05 00:05 35.04056 -89.98131 327 ft 0 kts 135°
2026-05-05 00:09 35.04054 -89.98129 329 ft 1 kts 135°
2026-05-05 00:09 35.04039 -89.98108 325 ft 5 kts 129°
2026-05-05 00:10 35.04004 -89.98059 328 ft 9 kts 141°
2026-05-05 00:10 35.03938 -89.98036 327 ft 10 kts 173°
2026-05-05 00:10 35.03889 -89.97982 327 ft 10 kts 99°
2026-05-05 00:10 35.03889 -89.97893 326 ft 11 kts 89°
2026-05-05 00:11 35.03891 -89.97801 329 ft 10 kts 89°
2026-05-05 00:11 35.03911 -89.97739 326 ft 8 kts 19°
2026-05-05 00:11 35.03970 -89.97738 327 ft 9 kts 358°
2026-05-05 00:11 35.04035 -89.97739 326 ft 10 kts 360°
2026-05-05 00:12 35.04112 -89.97741 326 ft 12 kts 358°
2026-05-05 00:12 35.04205 -89.97744 327 ft 15 kts 359°
2026-05-05 00:12 35.04316 -89.97745 326 ft 17 kts
2026-05-05 00:12 35.04443 -89.97748 326 ft 19 kts 359°
2026-05-05 00:13 35.04576 -89.97751 327 ft 17 kts 358°
2026-05-05 00:13 35.04703 -89.97753 325 ft 20 kts 359°
2026-05-05 00:13 35.04846 -89.97756 325 ft 22 kts 359°
2026-05-05 00:13 35.04990 -89.97760 326 ft 21 kts 359°
2026-05-05 00:14 35.05143 -89.97761 327 ft 23 kts 357°
2026-05-05 00:14 35.05281 -89.97766 327 ft 17 kts 356°
2026-05-05 00:14 35.05377 -89.97782 327 ft 9 kts 353°
2026-05-05 00:14 35.05435 -89.97773 326 ft 8 kts 36°
2026-05-05 00:15 35.05446 -89.97739 326 ft 0 kts 86°
2026-05-05 00:15 35.05447 -89.97719 325 ft 7 kts 90°
2026-05-05 00:16 35.05447 -89.97645 323 ft 7 kts 90°
2026-05-05 00:16 35.05409 -89.97618 323 ft 7 kts 176°
2026-05-05 00:16 35.05354 -89.97615 323 ft 14 kts 178°
2026-05-05 00:16 35.05024 -89.97608 321 ft 81 kts 179°
2026-05-05 00:17 35.04263 -89.97591 323 ft 135 kts 179°
2026-05-05 00:17 35.03188 -89.97578 467 ft 165 kts 181°
2026-05-05 00:17 35.02064 -89.97535 1143 ft 164 kts 181°
2026-05-05 00:17 35.00860 -89.97473 1604 ft 174 kts 178°
2026-05-05 00:18 34.99722 -89.97359 2533 ft 158 kts 180°
2026-05-05 00:18 34.98602 -89.97243 3048 ft 169 kts 178°
2026-05-05 00:18 34.97384 -89.96828 3318 ft 195 kts 162°
2026-05-05 00:18 34.96071 -89.96151 3578 ft 216 kts 162°
2026-05-05 00:19 34.94616 -89.95439 3893 ft 233 kts 163°
2026-05-05 00:19 34.93099 -89.94565 4355 ft 255 kts 144°
2026-05-05 00:19 34.92124 -89.92700 5045 ft 275 kts 108°
2026-05-05 00:19 34.92136 -89.90315 5774 ft 289 kts 82°
2026-05-05 00:20 34.92414 -89.87870 6457 ft 297 kts 88°
2026-05-05 00:20 34.92495 -89.85349 7202 ft 299 kts 88°
2026-05-05 00:20 34.93050 -89.82910 7974 ft 302 kts 62°
2026-05-05 00:20 34.94105 -89.80686 8737 ft 305 kts 58°
2026-05-05 00:21 34.95209 -89.78453 9496 ft 309 kts 58°
2026-05-05 00:21 34.96606 -89.76471 10158 ft 311 kts 33°
2026-05-05 00:21 34.98598 -89.75367 10443 ft 325 kts
2026-05-05 00:21 34.99547 -89.75225 10528 ft 330 kts 358°
2026-05-05 00:22 35.01907 -89.75304 10712 ft 350 kts 354°
2026-05-05 00:22 35.04408 -89.75476 10869 ft 370 kts 354°
2026-05-05 00:22 35.07030 -89.75637 11199 ft 382 kts 354°
2026-05-05 00:22 35.09674 -89.75773 11772 ft 386 kts 354°
2026-05-05 00:23 35.12401 -89.75904 12477 ft 387 kts 354°
2026-05-05 00:23 35.15059 -89.76044 13146 ft 388 kts 354°
2026-05-05 00:23 35.17767 -89.76193 13772 ft 390 kts 354°
2026-05-05 00:23 35.20484 -89.76345 14322 ft 392 kts 354°
2026-05-05 00:24 35.23230 -89.76497 14893 ft 394 kts 354°
2026-05-05 00:24 35.25971 -89.76647 15477 ft 395 kts 354°
2026-05-05 00:24 35.28737 -89.76798 16023 ft 398 kts 354°
2026-05-05 00:24 35.31502 -89.77022 16565 ft 398 kts 349°
2026-05-05 00:25 35.34190 -89.77635 17095 ft 398 kts 344°
2026-05-05 00:25 35.36887 -89.78439 17642 ft 399 kts 343°
2026-05-05 00:25 35.39595 -89.79279 18157 ft 402 kts 343°
2026-05-05 00:25 35.42328 -89.80104 18630 ft 403 kts 343°
2026-05-05 00:26 35.45065 -89.80898 19082 ft 406 kts 344°
2026-05-05 00:26 35.47837 -89.81679 19491 ft 409 kts 344°
2026-05-05 00:26 35.50628 -89.82452 19931 ft 412 kts 344°
2026-05-05 00:26 35.53441 -89.83229 20378 ft 415 kts 344°
2026-05-05 00:27 35.56231 -89.84001 20810 ft 417 kts 344°
2026-05-05 00:27 35.59122 -89.84554 21212 ft 425 kts 355°
2026-05-05 00:27 35.62096 -89.84176 21609 ft 435 kts
2026-05-05 00:27 35.64991 -89.82967 22015 ft 444 kts 22°
2026-05-05 00:28 35.67673 -89.80990 22398 ft 451 kts 29°
2026-05-05 00:28 35.70297 -89.78846 22761 ft 455 kts 30°
2026-05-05 00:28 35.72928 -89.76648 23121 ft 458 kts 30°
2026-05-05 00:28 35.75576 -89.74432 23497 ft 461 kts 30°
2026-05-05 00:29 35.78207 -89.72247 23814 ft 463 kts 30°
2026-05-05 00:29 35.80891 -89.70035 24164 ft 464 kts 29°
2026-05-05 00:29 35.83591 -89.67825 24518 ft 466 kts 29°
2026-05-05 00:29 35.86299 -89.65619 24855 ft 468 kts 28°
2026-05-05 00:30 35.89028 -89.63400 25183 ft 469 kts 28°
2026-05-05 00:30 35.91760 -89.61179 25502 ft 472 kts 28°
2026-05-05 00:30 35.94517 -89.58937 25828 ft 473 kts 28°
2026-05-05 00:30 35.97269 -89.56696 26136 ft 475 kts 28°
2026-05-05 00:31 36.00032 -89.54444 26446 ft 477 kts 28°
2026-05-05 00:31 36.02808 -89.52180 26754 ft 479 kts 28°
2026-05-05 00:31 36.05593 -89.49907 27049 ft 481 kts 28°
2026-05-05 00:31 36.08383 -89.47628 27399 ft 481 kts 28°
2026-05-05 00:32 36.11166 -89.45350 27853 ft 479 kts 28°
2026-05-05 00:32 36.13934 -89.43081 28364 ft 476 kts 28°
2026-05-05 00:32 36.16692 -89.40818 28863 ft 474 kts 27°
2026-05-05 00:32 36.19440 -89.38562 29316 ft 473 kts 27°
2026-05-05 00:33 36.22180 -89.36311 29733 ft 472 kts 27°
2026-05-05 00:33 36.24882 -89.34091 30156 ft 471 kts 27°
2026-05-05 00:33 36.27616 -89.31841 30550 ft 469 kts 27°
2026-05-05 00:33 36.30330 -89.29606 30947 ft 467 kts 26°
2026-05-05 00:34 36.33037 -89.27375 31322 ft 466 kts 26°
2026-05-05 00:34 36.35733 -89.25150 31683 ft 465 kts 25°
2026-05-05 00:34 36.38421 -89.22931 32078 ft 463 kts 26°
2026-05-05 00:34 36.41102 -89.20714 32427 ft 462 kts 25°
2026-05-05 00:35 36.43780 -89.18501 32745 ft 461 kts 25°
2026-05-05 00:35 36.46457 -89.16288 32853 ft 464 kts 25°
2026-05-05 00:35 36.49106 -89.14098 32863 ft 463 kts 25°
2026-05-05 00:36 36.54457 -89.09659 32863 ft 461 kts 25°
2026-05-05 00:36 36.59800 -89.05221 32859 ft 462 kts 25°
2026-05-05 00:37 36.65149 -89.00769 32848 ft 462 kts 25°
2026-05-05 00:37 36.70490 -88.96317 32851 ft 462 kts 25°
2026-05-05 00:38 36.75840 -88.91850 32862 ft 463 kts 26°
2026-05-05 00:38 36.81200 -88.87368 32854 ft 464 kts 26°
2026-05-05 00:39 36.86531 -88.82897 32846 ft 465 kts 27°
2026-05-05 00:39 36.91916 -88.78379 32839 ft 467 kts 27°
2026-05-05 00:40 36.97326 -88.73832 32832 ft 469 kts 27°
2026-05-05 00:40 37.02766 -88.69251 32838 ft 471 kts 27°
2026-05-05 00:41 37.08179 -88.64683 32840 ft 473 kts 27°
2026-05-05 00:41 37.13652 -88.60057 32836 ft 474 kts 27°
2026-05-05 00:42 37.19144 -88.55406 32838 ft 475 kts 27°
2026-05-05 00:42 37.24626 -88.50755 32838 ft 476 kts 28°
2026-05-05 00:43 37.30073 -88.46126 32851 ft 476 kts 27°
2026-05-05 00:43 37.35556 -88.41458 32835 ft 476 kts 27°
2026-05-05 00:44 37.41042 -88.36779 32816 ft 476 kts 28°
2026-05-05 00:44 37.46523 -88.32096 32842 ft 475 kts 28°
2026-05-05 00:45 37.52004 -88.27404 32764 ft 476 kts 28°
2026-05-05 00:45 37.54783 -88.25026 31980 ft 485 kts 28°
2026-05-05 00:45 37.57524 -88.22672 31379 ft 480 kts 28°
2026-05-05 00:45 37.60282 -88.20302 30423 ft 482 kts 28°
2026-05-05 00:46 37.63049 -88.17897 29509 ft 483 kts 32°
2026-05-05 00:46 37.65436 -88.14847 28596 ft 495 kts 51°
2026-05-05 00:46 37.67065 -88.11071 28339 ft 488 kts 64°
2026-05-05 00:46 37.68264 -88.07076 27960 ft 482 kts 67°
2026-05-05 00:47 37.69380 -88.03061 27595 ft 488 kts 68°
2026-05-05 00:47 37.70501 -87.98982 27247 ft 492 kts 68°
2026-05-05 00:47 37.71639 -87.94906 26860 ft 490 kts 67°
2026-05-05 00:47 37.72776 -87.90916 26485 ft 485 kts 67°
2026-05-05 00:48 37.73932 -87.86924 26122 ft 481 kts 66°
2026-05-05 00:48 37.75092 -87.82953 25764 ft 478 kts 66°
2026-05-05 00:48 37.76240 -87.79034 25411 ft 474 kts 66°
2026-05-05 00:48 37.77368 -87.75178 25071 ft 472 kts 67°
2026-05-05 00:49 37.78504 -87.71285 24726 ft 470 kts 67°
2026-05-05 00:49 37.79631 -87.67415 24382 ft 469 kts 68°
2026-05-05 00:49 37.80753 -87.63549 24039 ft 467 kts 68°
2026-05-05 00:49 37.81868 -87.59699 23693 ft 466 kts 68°
2026-05-05 00:50 37.82984 -87.55844 23334 ft 466 kts 68°
2026-05-05 00:50 37.84073 -87.51989 22940 ft 465 kts 72°
2026-05-05 00:50 37.84557 -87.47952 22550 ft 465 kts 91°
2026-05-05 00:50 37.84197 -87.43912 22266 ft 461 kts 99°
2026-05-05 00:51 37.83676 -87.39915 21895 ft 460 kts 100°
2026-05-05 00:51 37.83140 -87.35939 21547 ft 458 kts 100°
2026-05-05 00:51 37.82779 -87.33252 21315 ft 457 kts 99°
2026-05-05 00:51 37.82267 -87.29346 20970 ft 454 kts 99°
2026-05-05 00:52 37.81762 -87.25407 20650 ft 452 kts 99°
2026-05-05 00:52 37.81269 -87.21490 20323 ft 450 kts 99°
2026-05-05 00:52 37.80783 -87.17588 19981 ft 448 kts 99°
2026-05-05 00:52 37.80300 -87.13702 19652 ft 446 kts 99°
2026-05-05 00:53 37.79820 -87.09838 19328 ft 444 kts 99°
2026-05-05 00:53 37.79338 -87.05978 19002 ft 442 kts 99°
2026-05-05 00:53 37.78859 -87.02153 18795 ft 438 kts 99°
2026-05-05 00:53 37.78388 -86.98400 18505 ft 437 kts 99°
2026-05-05 00:54 37.77910 -86.94613 18204 ft 436 kts 99°
2026-05-05 00:54 37.77432 -86.90829 17861 ft 435 kts 99°
2026-05-05 00:54 37.76954 -86.87056 17516 ft 434 kts 99°
2026-05-05 00:54 37.76476 -86.83301 17191 ft 431 kts 99°
2026-05-05 00:55 37.76002 -86.79583 16866 ft 426 kts 99°
2026-05-05 00:55 37.75529 -86.75877 16552 ft 426 kts 99°
2026-05-05 00:55 37.75055 -86.72184 16242 ft 425 kts 99°
2026-05-05 00:55 37.74583 -86.68504 15924 ft 423 kts 99°
2026-05-05 00:56 37.74113 -86.64846 15616 ft 421 kts 99°
2026-05-05 00:56 37.73643 -86.61202 15306 ft 418 kts 99°
2026-05-05 00:56 37.73178 -86.57605 14992 ft 410 kts 100°
2026-05-05 00:56 37.72799 -86.54069 14671 ft 403 kts 91°
2026-05-05 00:57 37.73142 -86.50661 14457 ft 386 kts 75°
2026-05-05 00:57 37.73765 -86.47405 14106 ft 376 kts 75°
2026-05-05 00:57 37.74345 -86.44229 13835 ft 368 kts 76°
2026-05-05 00:57 37.74898 -86.41043 13578 ft 373 kts 77°
2026-05-05 00:58 37.75616 -86.37872 13238 ft 377 kts 61°
2026-05-05 00:58 37.77149 -86.35251 12926 ft 369 kts 38°
2026-05-05 00:58 37.79223 -86.33481 12479 ft 361 kts 19°
2026-05-05 00:58 37.81588 -86.32547 12059 ft 353 kts
2026-05-05 00:59 37.83982 -86.31852 11614 ft 351 kts
2026-05-05 00:59 37.86357 -86.31154 11178 ft 350 kts
2026-05-05 00:59 37.88720 -86.30439 10838 ft 346 kts
2026-05-05 00:59 37.91038 -86.29712 10548 ft 336 kts
2026-05-05 01:00 37.93238 -86.29015 10280 ft 324 kts
2026-05-05 01:00 37.95388 -86.28333 10006 ft 313 kts
2026-05-05 01:00 37.97449 -86.27678 9956 ft 295 kts
2026-05-05 01:00 37.99419 -86.26907 9530 ft 299 kts 21°
2026-05-05 01:01 38.01226 -86.25637 9298 ft 295 kts 26°
2026-05-05 01:01 38.02997 -86.24341 9028 ft 293 kts 25°
2026-05-05 01:01 38.04767 -86.23079 8791 ft 297 kts 25°
2026-05-05 01:01 38.06589 -86.21801 8542 ft 301 kts 25°
2026-05-05 01:02 38.08435 -86.20511 8292 ft 304 kts 25°
2026-05-05 01:02 38.10130 -86.18880 8007 ft 310 kts 45°
2026-05-05 01:02 38.11561 -86.16828 7774 ft 311 kts 47°
2026-05-05 01:02 38.12995 -86.14778 7517 ft 308 kts 47°
2026-05-05 01:03 38.14432 -86.12770 7262 ft 305 kts 46°
2026-05-05 01:03 38.15868 -86.10789 7002 ft 303 kts 46°
2026-05-05 01:03 38.17280 -86.08846 6762 ft 302 kts 47°
2026-05-05 01:03 38.18709 -86.06882 6514 ft 303 kts 47°
2026-05-05 01:04 38.20138 -86.04917 6279 ft 303 kts 47°
2026-05-05 01:04 38.22995 -86.00983 6011 ft 300 kts 47°
2026-05-05 01:04 38.24392 -85.99059 5994 ft 289 kts 47°
2026-05-05 01:05 38.25732 -85.97211 5981 ft 280 kts 47°
2026-05-05 01:05 38.27067 -85.95369 6002 ft 290 kts 48°
2026-05-05 01:05 38.28464 -85.93440 6001 ft 300 kts 47°
2026-05-05 01:05 38.30027 -85.91676 5971 ft 302 kts 26°
2026-05-05 01:06 38.32001 -85.90960 5997 ft 292 kts 357°
2026-05-05 01:06 38.33996 -85.91214 5968 ft 287 kts 346°
2026-05-05 01:06 38.35971 -85.90971 5826 ft 297 kts 20°
2026-05-05 01:06 38.37592 -85.89415 5581 ft 288 kts 58°
2026-05-05 01:07 38.38236 -85.87155 5463 ft 260 kts 96°
2026-05-05 01:07 38.37943 -85.85051 5401 ft 232 kts 107°
2026-05-05 01:07 38.37974 -85.82991 5122 ft 232 kts 92°
2026-05-05 01:07 38.37744 -85.81058 4660 ft 213 kts 131°
2026-05-05 01:08 38.36729 -85.79969 4206 ft 184 kts 175°
2026-05-05 01:08 38.35532 -85.80016 3872 ft 167 kts 193°
2026-05-05 01:08 38.34376 -85.79898 3642 ft 167 kts 176°
2026-05-05 01:08 38.33243 -85.79616 3400 ft 163 kts 177°
2026-05-05 01:09 38.32162 -85.79304 3177 ft 156 kts 176°
2026-05-05 01:09 38.31109 -85.78972 2989 ft 156 kts 176°
2026-05-05 01:09 38.30054 -85.78629 2789 ft 157 kts 175°
2026-05-05 01:09 38.29007 -85.78284 2587 ft 157 kts 175°
2026-05-05 01:10 38.27965 -85.77939 2366 ft 152 kts 173°
2026-05-05 01:10 38.26983 -85.77601 2202 ft 141 kts 176°
2026-05-05 01:10 38.26036 -85.77300 2032 ft 141 kts 175°
2026-05-05 01:10 38.25090 -85.76989 1849 ft 139 kts 175°
2026-05-05 01:11 38.24160 -85.76683 1669 ft 136 kts 175°
2026-05-05 01:11 38.23239 -85.76366 1501 ft 139 kts 174°
2026-05-05 01:11 38.22296 -85.76067 1316 ft 143 kts 171°
2026-05-05 01:11 38.21341 -85.75751 1107 ft 137 kts 171°
2026-05-05 01:12 38.20406 -85.75445 935 ft 141 kts 167°
2026-05-05 01:12 38.19451 -85.75127 764 ft 143 kts 167°
2026-05-05 01:12 38.18464 -85.74789 560 ft 149 kts 168°
2026-05-05 01:12 38.17492 -85.74471 487 ft 130 kts 163°
2026-05-05 01:13 38.16763 -85.74238 476 ft 86 kts 165°
2026-05-05 01:13 38.16383 -85.74110 478 ft 18 kts 162°
2026-05-05 01:13 38.16339 -85.74009 483 ft 13 kts 81°
2026-05-05 01:13 38.16392 -85.73953 483 ft 11 kts 357°
2026-05-05 01:14 38.16469 -85.73979 481 ft 12 kts 346°
2026-05-05 01:14 38.16553 -85.74008 481 ft 8 kts 351°
2026-05-05 01:14 38.16581 -85.73974 483 ft 6 kts 58°
2026-05-05 01:14 38.16622 -85.73941 483 ft 8 kts
2026-05-05 01:15 38.16689 -85.73960 482 ft 11 kts 347°
2026-05-05 01:15 38.16775 -85.73986 483 ft 14 kts 346°
2026-05-05 01:15 38.16878 -85.74021 485 ft 17 kts 346°
2026-05-05 01:15 38.16999 -85.74061 483 ft 19 kts 345°
2026-05-05 01:16 38.17139 -85.74105 485 ft 22 kts 346°
2026-05-05 01:16 38.17294 -85.74157 480 ft 24 kts 345°
2026-05-05 01:16 38.17463 -85.74213 483 ft 26 kts 346°
2026-05-05 01:16 38.17641 -85.74271 483 ft 25 kts 346°
2026-05-05 01:17 38.17817 -85.74329 484 ft 26 kts 345°
2026-05-05 01:17 38.17982 -85.74383 484 ft 15 kts 344°
2026-05-05 01:17 38.18067 -85.74353 484 ft 14 kts 64°
2026-05-05 01:17 38.18098 -85.74225 485 ft 16 kts 68°
2026-05-05 01:18 38.18157 -85.74088 488 ft 19 kts 60°
2026-05-05 01:18 38.18227 -85.73933 485 ft 21 kts 61°
2026-05-05 01:18 38.18295 -85.73791 485 ft 16 kts 60°
2026-05-05 01:18 38.18343 -85.73696 484 ft 9 kts 36°
2026-05-05 01:19 38.18410 -85.73717 488 ft 11 kts 330°
2026-05-05 01:19 38.18459 -85.73789 487 ft 11 kts 290°
2026-05-05 01:19 38.18473 -85.73880 488 ft 7 kts 278°
2026-05-05 01:19 38.18458 -85.73925 485 ft 6 kts 213°
2026-05-05 01:20 38.18426 -85.73943 486 ft 5 kts 202°
2026-05-05 01:20 38.18406 -85.73953 486 ft 2 kts 202°
2026-05-05 01:20 38.18404 -85.73954 485 ft 0 kts 201°